| time (UTC) | temp F | wind direction | speed knots | gust knots | rain 1hr in | rain 24hr in | rain mn in | humidity % | barometer mb |
| 20260502195009 | 45 | 292 | 3.5 | 11.3 | 0.00 | 0.00 | 0.00 | 56 | 1016.6 |
| 20260502194506 | 45 | 278 | 3.5 | 7.0 | 0.00 | 0.00 | 0.00 | 55 | 1016.5 |
| 20260502194002 | 45 | 291 | 3.5 | 7.0 | 0.00 | 0.00 | 0.00 | 56 | 1016.6 |
| 20260502193500 | 46 | 268 | 5.2 | 7.0 | 0.00 | 0.00 | 0.00 | 55 | 1016.6 |
| 20260502192955 | 46 | 307 | 5.2 | 7.0 | 0.00 | 0.00 | 0.00 | 55 | 1016.8 |
| 20260502192452 | 46 | 290 | 3.5 | 5.2 | 0.00 | 0.00 | 0.00 | 55 | 1016.7 |
| 20260502191949 | 46 | 296 | 4.3 | 7.0 | 0.00 | 0.00 | 0.00 | 56 | 1016.8 |
| 20260502191447 | 45 | 266 | 1.7 | 8.7 | 0.00 | 0.00 | 0.00 | 57 | 1016.9 |
| 20260502190944 | 45 | 329 | 4.3 | 11.3 | 0.00 | 0.00 | 0.00 | 55 | 1016.7 |
| 20260502190441 | 45 | 267 | 4.3 | 7.0 | 0.00 | 0.00 | 0.00 | 56 | 1016.6 |
| 20260502185937 | 45 | 283 | 4.3 | 7.0 | 0.00 | 0.00 | 0.00 | 56 | 1016.9 |
| 20260502185433 | 45 | 261 | 2.6 | 5.2 | 0.00 | 0.00 | 0.00 | 57 | 1016.7 |
| 20260502184930 | 45 | 240 | 1.7 | 5.2 | 0.00 | 0.00 | 0.00 | 58 | 1016.9 |
| 20260502184425 | 45 | 276 | 1.7 | 13.9 | 0.00 | 0.00 | 0.00 | 56 | 1016.8 |
| 20260502183922 | 47 | 266 | 3.5 | 6.1 | 0.00 | 0.00 | 0.00 | 56 | 1016.9 |
| 20260502183419 | 47 | 292 | 4.3 | 6.1 | 0.00 | 0.00 | 0.00 | 53 | 1016.9 |
| 20260502182914 | 47 | 246 | 3.5 | 7.0 | 0.00 | 0.00 | 0.00 | 55 | 1016.7 |
| 20260502182410 | 47 | 262 | 1.7 | 7.0 | 0.00 | 0.00 | 0.00 | 54 | 1016.8 |
| 20260502181906 | 47 | 284 | 4.3 | 7.0 | 0.00 | 0.00 | 0.00 | 52 | 1016.7 |
| 20260502181405 | 46 | 319 | 4.3 | 5.2 | 0.00 | 0.00 | 0.00 | 53 | 1017.1 |
| 20260502180903 | 46 | 283 | 3.5 | 7.0 | 0.00 | 0.00 | 0.00 | 55 | 1016.9 |
| 20260502180359 | 46 | 263 | 3.5 | 7.8 | 0.00 | 0.00 | 0.00 | 56 | 1017.0 |
| 20260502170318 | 46 | 300 | 2.6 | 7.0 | 0.00 | 0.00 | 0.00 | 55 | 1017.3 |
| 20260502164306 | 47 | 6 | 5.2 | 7.0 | 0.00 | 0.00 | 0.00 | 52 | 1017.2 |
| 20260502163801 | 47 | 276 | 0.9 | 3.5 | 0.00 | 0.00 | 0.00 | 52 | 1017.2 |
| 20260502163258 | 46 | 270 | 4.3 | 9.6 | 0.00 | 0.00 | 0.00 | 52 | 1017.2 |
| 20260502162755 | 46 | 292 | 1.7 | 7.0 | 0.00 | 0.00 | 0.00 | 56 | 1017.3 |
| 20260502162252 | 46 | 290 | 4.3 | 8.7 | 0.00 | 0.00 | 0.00 | 54 | 1017.4 |
| 20260502161749 | 46 | 288 | 2.6 | 7.8 | 0.00 | 0.00 | 0.00 | 54 | 1017.4 |
| 20260502161245 | 47 | 337 | 1.7 | 3.5 | 0.00 | 0.00 | 0.00 | 50 | 1017.5 |
| 20260502160743 | 46 | 269 | 5.2 | 7.0 | 0.00 | 0.00 | 0.00 | 49 | 1017.7 |
| 20260502160242 | 46 | 320 | 3.5 | 11.3 | 0.00 | 0.00 | 0.00 | 50 | 1017.7 |
| 20260502152212 | 45 | 301 | 5.2 | 7.0 | 0.00 | 0.00 | 0.00 | 55 | 1017.7 |
| 20260502151709 | 45 | 331 | 4.3 | 7.8 | 0.00 | 0.00 | 0.00 | 56 | 1017.4 |
| 20260502151206 | 45 | 198 | 3.5 | 7.0 | 0.00 | 0.00 | 0.00 | 53 | 1017.7 |
| 20260502150703 | 45 | 330 | 0.9 | 7.0 | 0.00 | 0.00 | 0.00 | 56 | 1017.7 |
| 20260502150200 | 45 | 313 | 3.5 | 7.8 | 0.00 | 0.00 | 0.00 | 55 | 1017.4 |
| 20260502140123 | 45 | 309 | 7.0 | 8.7 | 0.00 | 0.00 | 0.00 | 60 | 1017.5 |
| 20260502130548 | 40 | 278 | 1.7 | 3.5 | 0.00 | 0.00 | 0.00 | 79 | 1017.5 |
| 20260502123532 | 39 | 254 | 1.7 | 2.6 | 0.00 | 0.00 | 0.00 | 83 | 1017.4 |
| 20260502123028 | 39 | 286 | 1.7 | 3.5 | 0.00 | 0.00 | 0.00 | 83 | 1017.3 |
| 20260502122525 | 39 | 264 | 1.7 | 1.7 | 0.00 | 0.00 | 0.00 | 84 | 1017.5 |
| 20260502122023 | 38 | 285 | 1.7 | 2.6 | 0.00 | 0.00 | 0.00 | 85 | 1017.4 |
| 20260502121520 | 38 | 241 | 1.7 | 2.6 | 0.00 | 0.00 | 0.00 | 85 | 1017.3 |
| 20260502121017 | 38 | 268 | 0.9 | 1.7 | 0.00 | 0.00 | 0.00 | 86 | 1017.2 |
| 20260502120513 | 38 | 311 | 0.0 | 2.6 | 0.00 | 0.00 | 0.00 | 87 | 1017.1 |
| 20260502115508 | 38 | 261 | 1.7 | 1.7 | 0.00 | 0.00 | 0.00 | 88 | 1017.1 |
| 20260502115004 | 37 | 264 | 0.9 | 1.7 | 0.00 | 0.00 | 0.00 | 90 | 1017.4 |
| 20260502114501 | 37 | 227 | 0.0 | 0.0 | 0.00 | 0.00 | 0.00 | 92 | 1017.2 |
| 20260502113958 | 36 | 227 | 0.0 | 0.0 | 0.00 | 0.00 | 0.00 | 94 | 1017.2 |
| 20260502113455 | 36 | 227 | 0.0 | 0.0 | 0.00 | 0.00 | 0.00 | 95 | 1017.2 |
| 20260502112954 | 35 | 227 | 0.0 | 0.0 | 0.00 | 0.00 | 0.00 | 96 | 1017.2 |
| 20260502112450 | 35 | 227 | 0.0 | 0.0 | 0.00 | 0.00 | 0.00 | 96 | 1017.1 |
| 20260502111948 | 35 | 227 | 0.0 | 0.0 | 0.00 | 0.00 | 0.00 | 96 | 1017.2 |
| 20260502111445 | 35 | 227 | 0.0 | 0.0 | 0.00 | 0.00 | 0.00 | 96 | 1017.2 |
| 20260502110943 | 34 | 227 | 0.0 | 0.0 | 0.00 | 0.00 | 0.00 | 96 | 1017.0 |
| 20260502110440 | 34 | 227 | 0.0 | 0.0 | 0.00 | 0.00 | 0.00 | 96 | 1017.1 |
| 20260502105937 | 34 | 227 | 0.0 | 0.0 | 0.00 | 0.00 | 0.00 | 96 | 1017.1 |
| 20260502105434 | 34 | 227 | 0.0 | 0.9 | 0.00 | 0.00 | 0.00 | 96 | 1016.8 |
| 20260502104932 | 34 | 227 | 0.0 | 0.0 | 0.00 | 0.00 | 0.00 | 95 | 1016.8 |
| 20260502104430 | 34 | 227 | 0.0 | 0.0 | 0.00 | 0.00 | 0.00 | 95 | 1016.8 |
| 20260502103927 | 34 | 227 | 0.0 | 0.0 | 0.00 | 0.00 | 0.00 | 94 | 1016.8 |
| 20260502103424 | 35 | 277 | 0.0 | 0.0 | 0.00 | 0.00 | 0.00 | 94 | 1017.0 |
| 20260502102921 | 35 | 277 | 0.0 | 0.0 | 0.00 | 0.00 | 0.00 | 93 | 1017.2 |
| 20260502102418 | 35 | 278 | 0.0 | 0.0 | 0.00 | 0.00 | 0.00 | 93 | 1017.2 |
| 20260502101915 | 35 | 278 | 0.0 | 0.0 | 0.00 | 0.00 | 0.00 | 93 | 1017.1 |
| 20260502101414 | 35 | 278 | 0.0 | 0.0 | 0.00 | 0.00 | 0.00 | 92 | 1017.4 |
| 20260502100911 | 35 | 278 | 0.0 | 0.0 | 0.00 | 0.00 | 0.00 | 92 | 1017.1 |
| 20260502100410 | 35 | 278 | 0.0 | 0.0 | 0.00 | 0.00 | 0.00 | 92 | 1017.1 |
| 20260502091343 | 37 | 259 | 0.9 | 1.7 | 0.00 | 0.00 | 0.00 | 85 | 1017.4 |
| 20260502090841 | 37 | 259 | 0.9 | 1.7 | 0.00 | 0.00 | 0.00 | 84 | 1017.2 |
| 20260502090338 | 37 | 253 | 0.9 | 0.9 | 0.00 | 0.00 | 0.00 | 84 | 1017.5 |
| 20260502071233 | 40 | 266 | 1.7 | 5.2 | 0.00 | 0.00 | 0.00 | 76 | 1017.2 |
| 20260502070731 | 40 | 249 | 1.7 | 2.6 | 0.00 | 0.00 | 0.00 | 76 | 1017.3 |
| 20260502070228 | 40 | 307 | 2.6 | 3.5 | 0.00 | 0.00 | 0.00 | 75 | 1017.4 |
| 20260502065726 | 41 | 255 | 2.6 | 3.5 | 0.00 | 0.00 | 0.00 | 74 | 1017.2 |
| 20260502065224 | 41 | 271 | 2.6 | 5.2 | 0.00 | 0.00 | 0.00 | 73 | 1017.4 |
| 20260502064723 | 41 | 273 | 1.7 | 1.7 | 0.00 | 0.00 | 0.00 | 73 | 1017.4 |
| 20260502064220 | 41 | 254 | 0.9 | 2.6 | 0.00 | 0.00 | 0.00 | 72 | 1017.2 |
| 20260502063717 | 41 | 301 | 2.6 | 2.6 | 0.00 | 0.00 | 0.00 | 70 | 1017.2 |
| 20260502063215 | 41 | 266 | 1.7 | 1.7 | 0.00 | 0.00 | 0.00 | 72 | 1017.3 |
| 20260502062712 | 41 | 281 | 0.0 | 0.9 | 0.00 | 0.00 | 0.00 | 71 | 1017.4 |
| 20260502062209 | 41 | 278 | 0.9 | 1.7 | 0.00 | 0.00 | 0.00 | 69 | 1017.5 |
| 20260502061708 | 41 | 292 | 0.9 | 2.6 | 0.00 | 0.00 | 0.00 | 70 | 1017.8 |
| 20260502061205 | 42 | 301 | 0.9 | 1.7 | 0.00 | 0.00 | 0.00 | 70 | 1017.5 |
| 20260502060700 | 42 | 321 | 1.7 | 2.6 | 0.00 | 0.00 | 0.00 | 68 | 1017.5 |
| 20260502060157 | 42 | 323 | 1.7 | 2.6 | 0.00 | 0.00 | 0.00 | 68 | 1017.5 |
| 20260502055654 | 42 | 283 | 1.7 | 2.6 | 0.00 | 0.00 | 0.00 | 69 | 1017.5 |
| 20260502055152 | 42 | 276 | 1.7 | 3.5 | 0.00 | 0.00 | 0.00 | 70 | 1017.8 |
| 20260502054651 | 42 | 291 | 2.6 | 3.5 | 0.00 | 0.00 | 0.00 | 69 | 1017.5 |
| 20260502054148 | 42 | 272 | 0.0 | 0.9 | 0.00 | 0.00 | 0.00 | 72 | 1017.5 |
| 20260502053645 | 42 | 285 | 0.9 | 3.5 | 0.00 | 0.00 | 0.00 | 72 | 1017.5 |
| 20260502053142 | 42 | 263 | 2.6 | 5.2 | 0.00 | 0.00 | 0.00 | 72 | 1017.8 |
| 20260502052641 | 42 | 307 | 3.5 | 5.2 | 0.00 | 0.00 | 0.00 | 72 | 1017.7 |
| 20260502052138 | 42 | 258 | 1.7 | 5.2 | 0.00 | 0.00 | 0.00 | 72 | 1017.9 |
| 20260502051636 | 43 | 307 | 1.7 | 5.2 | 0.00 | 0.00 | 0.00 | 75 | 1017.5 |
| 20260502051134 | 43 | 260 | 1.7 | 5.2 | 0.00 | 0.00 | 0.00 | 76 | 1017.7 |
| 20260502050630 | 43 | 321 | 4.3 | 7.8 | 0.00 | 0.00 | 0.00 | 74 | 1017.7 |
| 20260502050127 | 43 | 267 | 4.3 | 8.7 | 0.00 | 0.00 | 0.00 | 75 | 1017.9 |
| 20260502045623 | 43 | 287 | 4.3 | 8.7 | 0.00 | 0.00 | 0.00 | 74 | 1017.9 |
| 20260502045121 | 43 | 282 | 3.5 | 7.8 | 0.00 | 0.00 | 0.00 | 80 | 1018.0 |
| 20260502044617 | 43 | 259 | 3.5 | 5.2 | 0.00 | 0.00 | 0.00 | 79 | 1017.9 |
| 20260502044114 | 43 | 287 | 9.6 | 12.2 | 0.00 | 0.00 | 0.00 | 79 | 1017.8 |
| 20260502043612 | 43 | 276 | 5.2 | 7.0 | 0.00 | 0.00 | 0.00 | 78 | 1017.9 |
| 20260502043108 | 43 | 239 | 4.3 | 8.7 | 0.00 | 0.00 | 0.00 | 79 | 1018.0 |
| 20260502042608 | 44 | 277 | 3.5 | 7.8 | 0.00 | 0.00 | 0.00 | 79 | 1017.8 |
| 20260502042106 | 44 | 293 | 7.0 | 13.0 | 0.00 | 0.00 | 0.00 | 82 | 1017.8 |
| 20260502041603 | 44 | 292 | 3.5 | 6.1 | 0.00 | 0.00 | 0.00 | 83 | 1017.9 |
| 20260502041100 | 44 | 231 | 3.5 | 5.2 | 0.00 | 0.00 | 0.00 | 83 | 1017.8 |
| 20260502040557 | 44 | 282 | 2.6 | 2.6 | 0.00 | 0.00 | 0.00 | 83 | 1017.8 |
| 20260502040055 | 44 | 33 | 0.0 | 5.2 | 0.00 | 0.00 | 0.00 | 82 | 1017.7 |
| 20260502035550 | 44 | 289 | 1.7 | 5.2 | 0.00 | 0.00 | 0.00 | 82 | 1017.8 |
| 20260502035048 | 45 | 306 | 2.6 | 6.1 | 0.00 | 0.00 | 0.00 | 81 | 1017.5 |
| 20260502034545 | 45 | 284 | 0.9 | 2.6 | 0.00 | 0.00 | 0.00 | 82 | 1017.7 |
| 20260502034044 | 45 | 264 | 1.7 | 3.5 | 0.00 | 0.00 | 0.00 | 82 | 1017.7 |
| 20260502033542 | 45 | 225 | 1.7 | 2.6 | 0.00 | 0.00 | 0.00 | 81 | 1017.8 |
| 20260502033038 | 45 | 314 | 5.2 | 6.1 | 0.00 | 0.00 | 0.00 | 81 | 1017.9 |
| 20260502032534 | 45 | 335 | 2.6 | 6.1 | 0.00 | 0.00 | 0.00 | 80 | 1017.7 |
| 20260502032031 | 45 | 272 | 1.7 | 2.6 | 0.00 | 0.00 | 0.00 | 81 | 1017.9 |
| 20260502031529 | 45 | 241 | 1.7 | 6.1 | 0.00 | 0.00 | 0.00 | 80 | 1017.9 |
| 20260502031027 | 45 | 228 | 4.3 | 6.1 | 0.00 | 0.00 | 0.00 | 80 | 1017.9 |
| 20260502030526 | 45 | 248 | 3.5 | 7.0 | 0.00 | 0.00 | 0.00 | 79 | 1017.7 |
| 20260502030023 | 45 | 266 | 2.6 | 3.5 | 0.00 | 0.00 | 0.00 | 78 | 1017.9 |
| 20260502025520 | 45 | 263 | 4.3 | 7.8 | 0.00 | 0.00 | 0.00 | 78 | 1018.0 |
| 20260502025018 | 45 | 235 | 1.7 | 7.0 | 0.00 | 0.00 | 0.00 | 78 | 1017.9 |
| 20260502024515 | 45 | 313 | 3.5 | 9.6 | 0.00 | 0.00 | 0.00 | 77 | 1017.7 |
| 20260502024014 | 46 | 295 | 1.7 | 6.1 | 0.00 | 0.00 | 0.00 | 77 | 1017.4 |
| 20260502023511 | 46 | 284 | 0.9 | 6.1 | 0.00 | 0.00 | 0.00 | 77 | 1017.4 |
| 20260502023008 | 46 | 282 | 1.7 | 3.5 | 0.00 | 0.00 | 0.00 | 77 | 1017.7 |
| 20260502022505 | 46 | 286 | 1.7 | 3.5 | 0.00 | 0.00 | 0.00 | 77 | 1017.3 |
| 20260502022002 | 46 | 235 | 0.9 | 5.2 | 0.00 | 0.00 | 0.00 | 75 | 1017.3 |
| 20260502021459 | 46 | 244 | 0.9 | 3.5 | 0.00 | 0.00 | 0.00 | 75 | 1017.2 |
| 20260502020955 | 46 | 190 | 3.5 | 7.0 | 0.00 | 0.00 | 0.00 | 75 | 1017.3 |
| 20260502020454 | 46 | 234 | 2.6 | 6.1 | 0.00 | 0.00 | 0.00 | 75 | 1017.5 |
| 20260502015950 | 46 | 271 | 6.1 | 9.6 | 0.00 | 0.00 | 0.00 | 75 | 1017.2 |
| 20260502015448 | 46 | 244 | 5.2 | 7.0 | 0.00 | 0.00 | 0.00 | 75 | 1017.0 |
| 20260502014944 | 46 | 281 | 2.6 | 6.1 | 0.00 | 0.00 | 0.00 | 76 | 1016.9 |
| 20260502014441 | 47 | 302 | 2.6 | 6.1 | 0.00 | 0.00 | 0.00 | 75 | 1016.6 |
| 20260502013938 | 47 | 279 | 2.6 | 6.1 | 0.00 | 0.00 | 0.00 | 76 | 1017.0 |
| 20260502013433 | 47 | 343 | 3.5 | 5.2 | 0.00 | 0.00 | 0.00 | 75 | 1016.7 |
| 20260502012930 | 47 | 267 | 1.7 | 5.2 | 0.00 | 0.00 | 0.00 | 75 | 1016.6 |
| 20260502012428 | 47 | 275 | 2.6 | 5.2 | 0.00 | 0.00 | 0.00 | 77 | 1016.5 |
| 20260502011925 | 47 | 287 | 4.3 | 7.0 | 0.00 | 0.00 | 0.00 | 76 | 1016.5 |
| 20260502011421 | 48 | 277 | 3.5 | 9.6 | 0.00 | 0.00 | 0.00 | 76 | 1016.4 |
| 20260502010919 | 48 | 310 | 2.6 | 7.0 | 0.00 | 0.00 | 0.00 | 77 | 1016.4 |
| 20260502010415 | 48 | 292 | 1.7 | 2.6 | 0.00 | 0.00 | 0.00 | 77 | 1016.5 |
| 20260502005911 | 48 | 289 | 2.6 | 6.1 | 0.00 | 0.00 | 0.00 | 78 | 1016.3 |
| 20260502005410 | 48 | 291 | 0.9 | 1.7 | 0.00 | 0.00 | 0.00 | 78 | 1016.0 |
| 20260502004907 | 48 | 307 | 1.7 | 3.5 | 0.00 | 0.00 | 0.00 | 77 | 1016.0 |
| 20260502004403 | 49 | 282 | 2.6 | 2.6 | 0.00 | 0.00 | 0.00 | 78 | 1015.9 |
| 20260502003900 | 49 | 213 | 0.0 | 3.5 | 0.00 | 0.00 | 0.00 | 78 | 1015.8 |
| 20260502003358 | 49 | 269 | 2.6 | 2.6 | 0.00 | 0.00 | 0.00 | 78 | 1015.9 |
| 20260502002853 | 49 | 261 | 2.6 | 7.0 | 0.00 | 0.00 | 0.00 | 78 | 1015.6 |
| 20260502002351 | 49 | 254 | 0.9 | 6.1 | 0.00 | 0.00 | 0.00 | 78 | 1015.6 |
| 20260502001848 | 49 | 261 | 4.3 | 7.8 | 0.00 | 0.00 | 0.00 | 78 | 1015.5 |
| 20260502001346 | 49 | 285 | 6.1 | 7.8 | 0.00 | 0.00 | 0.00 | 78 | 1015.5 |
| 20260502000843 | 49 | 281 | 1.7 | 2.6 | 0.00 | 0.00 | 0.00 | 78 | 1015.3 |
| 20260502000341 | 49 | 290 | 1.7 | 7.0 | 0.00 | 0.00 | 0.00 | 77 | 1015.3 |
| 20260501235837 | 49 | 343 | 1.7 | 6.1 | 0.00 | 0.00 | 0.00 | 76 | 1015.1 |
| 20260501235333 | 49 | 140 | 1.7 | 6.1 | 0.00 | 0.00 | 0.00 | 76 | 1015.1 |
| 20260501234828 | 50 | 214 | 3.5 | 7.0 | 0.00 | 0.00 | 0.00 | 75 | 1015.2 |
| 20260501234325 | 50 | 260 | 1.7 | 2.6 | 0.00 | 0.00 | 0.00 | 74 | 1014.8 |
| 20260501233824 | 50 | 253 | 2.6 | 9.6 | 0.00 | 0.00 | 0.00 | 73 | 1014.6 |
| 20260501233321 | 52 | 239 | 5.2 | 8.7 | 0.00 | 0.00 | 0.00 | 69 | 1014.6 |
| 20260501232817 | 52 | 309 | 5.2 | 7.0 | 0.00 | 0.00 | 0.00 | 69 | 1014.4 |
| 20260501232314 | 52 | 300 | 3.5 | 9.6 | 0.00 | 0.00 | 0.00 | 67 | 1014.3 |
| 20260501231811 | 53 | 240 | 4.3 | 6.1 | 0.00 | 0.00 | 0.00 | 66 | 1014.2 |
| 20260501231309 | 53 | 265 | 2.6 | 7.8 | 0.00 | 0.00 | 0.00 | 64 | 1014.2 |
| 20260501230808 | 56 | 316 | 2.6 | 7.8 | 0.00 | 0.00 | 0.00 | 58 | 1014.1 |
| 20260501230306 | 56 | 40 | 2.6 | 7.8 | 0.00 | 0.00 | 0.00 | 54 | 1013.9 |
| 20260501225803 | 57 | 273 | 5.2 | 7.0 | 0.00 | 0.00 | 0.00 | 48 | 1013.9 |
| 20260501225301 | 57 | 262 | 4.3 | 6.1 | 0.00 | 0.00 | 0.00 | 46 | 1013.8 |
| 20260501224756 | 58 | 323 | 5.2 | 8.7 | 0.00 | 0.00 | 0.00 | 46 | 1013.9 |
| 20260501224254 | 59 | 224 | 0.9 | 5.2 | 0.00 | 0.00 | 0.00 | 43 | 1013.9 |
| 20260501223750 | 59 | 282 | 6.1 | 12.2 | 0.00 | 0.00 | 0.00 | 44 | 1013.8 |
| 20260501223246 | 60 | 326 | 5.2 | 7.0 | 0.00 | 0.00 | 0.00 | 41 | 1013.8 |
| 20260501222742 | 59 | 176 | 2.6 | 3.5 | 0.00 | 0.00 | 0.00 | 44 | 1013.7 |
| 20260501222240 | 59 | 125 | 2.6 | 5.2 | 0.00 | 0.00 | 0.00 | 41 | 1013.9 |
| 20260501221737 | 60 | 284 | 0.9 | 1.7 | 0.00 | 0.00 | 0.00 | 44 | 1013.5 |
| 20260501221234 | 60 | 266 | 4.3 | 6.1 | 0.00 | 0.00 | 0.00 | 39 | 1013.5 |
| 20260501220731 | 59 | 305 | 5.2 | 6.1 | 0.00 | 0.00 | 0.00 | 40 | 1013.7 |
| 20260501220229 | 59 | 251 | 1.7 | 6.1 | 0.00 | 0.00 | 0.00 | 41 | 1013.8 |
| 20260501215726 | 59 | 153 | 6.1 | 7.8 | 0.00 | 0.00 | 0.00 | 39 | 1013.7 |
| 20260501215221 | 60 | 90 | 0.9 | 3.5 | 0.00 | 0.00 | 0.00 | 41 | 1013.8 |
| 20260501214716 | 60 | 243 | 0.9 | 5.2 | 0.00 | 0.00 | 0.00 | 37 | 1013.5 |
| 20260501214213 | 61 | 163 | 0.9 | 7.0 | 0.00 | 0.00 | 0.00 | 39 | 1014.0 |
| 20260501213709 | 60 | 265 | 0.9 | 7.8 | 0.00 | 0.00 | 0.00 | 39 | 1013.7 |
| 20260501213205 | 60 | 306 | 4.3 | 7.8 | 0.00 | 0.00 | 0.00 | 37 | 1013.5 |
| 20260501212701 | 62 | 204 | 3.5 | 7.8 | 0.00 | 0.00 | 0.00 | 35 | 1013.4 |
| 20260501212158 | 62 | 305 | 3.5 | 11.3 | 0.00 | 0.00 | 0.00 | 34 | 1013.7 |
| 20260501211655 | 63 | 127 | 5.2 | 7.0 | 0.00 | 0.00 | 0.00 | 34 | 1013.9 |
| 20260501211153 | 62 | 133 | 5.2 | 6.1 | 0.00 | 0.00 | 0.00 | 32 | 1013.8 |
| 20260501210649 | 62 | 288 | 5.2 | 8.7 | 0.00 | 0.00 | 0.00 | 35 | 1013.8 |
| 20260501210146 | 62 | 268 | 5.2 | 11.3 | 0.00 | 0.00 | 0.00 | 34 | 1013.8 |
| 20260501205642 | 61 | 139 | 2.6 | 6.1 | 0.00 | 0.00 | 0.00 | 35 | 1013.7 |
| 20260501205140 | 61 | 155 | 1.7 | 6.1 | 0.00 | 0.00 | 0.00 | 35 | 1013.7 |
| 20260501204636 | 61 | 271 | 4.3 | 9.6 | 0.00 | 0.00 | 0.00 | 35 | 1013.9 |
| 20260501204132 | 62 | 314 | 5.2 | 8.7 | 0.00 | 0.00 | 0.00 | 36 | 1013.8 |
| 20260501203629 | 61 | 294 | 4.3 | 7.8 | 0.00 | 0.00 | 0.00 | 32 | 1014.0 |
| 20260501203127 | 63 | 281 | 2.6 | 9.6 | 0.00 | 0.00 | 0.00 | 34 | 1013.8 |
| 20260501202623 | 63 | 258 | 3.5 | 9.6 | 0.00 | 0.00 | 0.00 | 35 | 1013.8 |
| 20260501202120 | 62 | 131 | 2.6 | 7.0 | 0.00 | 0.00 | 0.00 | 35 | 1013.9 |
| 20260501201618 | 63 | 220 | 2.6 | 6.1 | 0.00 | 0.00 | 0.00 | 33 | 1013.9 |
| 20260501201114 | 63 | 262 | 4.3 | 7.0 | 0.00 | 0.00 | 0.00 | 36 | 1013.8 |
| 20260501200611 | 62 | 238 | 5.2 | 7.0 | 0.00 | 0.00 | 0.00 | 32 | 1013.7 |
| 20260501200108 | 62 | 120 | 3.5 | 7.0 | 0.00 | 0.00 | 0.00 | 31 | 1014.0 |
| 20260501195606 | 62 | 117 | 1.7 | 12.2 | 0.00 | 0.00 | 0.00 | 32 | 1013.8 |